Regional Weather Roundup
Issued by NWS

Home | Current Version | Previous Version | Graphics & Text | Print | Product List | Glossary On
Versions: 1 2 3 4 5 6 7 8 9 10 11 12 13 14 15 16 17 18 19 20 21 22 23 24 25 26 27 28 29 30 31 32 33 34 35 36 37 38 39 40 41 42 43 44 45 46 47 48 49 50
000
ASUS43 KLMK 140810
RWRKY
KENTUCKY REGIONAL WEATHER ROUNDUP
NATIONAL WEATHER SERVICE LOUISVILLE KY
300 AM EST THU DEC 14 2017

NOTE "FAIR" INDICATES FEW OR NO CLOUDS BELOW 12,000 FEET
WITH NO SIGNIFICANT WEATHER AND/OR OBSTRUCTIONS TO VISIBILITY.

KYZ001>023-026-027-061>063-070>075-140900-
WESTERN AND SOUTH CENTRAL KENTUCKY

CITY           SKY/WX    TMP DP  RH WIND       PRES   REMARKS
PADUCAH        CLEAR     39  27  62 N13       29.88R WCI  31
HENDERSON      CLOUDY    38  27  64 NW13G21   29.87R WCI  30
OWENSBORO      CLOUDY    38  27  64 N12G20    29.87R WCI  30
HOPKINSVILLE   CLEAR     39  30  68 NW9       29.84R WCI  33
BOWLING GREEN  CLOUDY    40  30  67 NW7G17    29.84R
GLASGOW        MOCLDY    38  30  72 NW6       29.81R WCI  34
$$

KYZ024-025-028>034-038-045-046-053-140900-
NORTH CENTRAL KENTUCKY

CITY           SKY/WX    TMP DP  RH WIND       PRES   REMARKS
LOUISVILLE/SDF CLOUDY    39  28  64 NW17G29   29.79R WCI  30
LOUISVILLE/LOU CLOUDY    39  29  67 NW14G28   29.80R WCI  31
FORT KNOX      CLOUDY    37  27  65 NW16G26   29.78R WCI  28
$$

KYZ035>037-039>044-047>052-055>060-089>105-140900-
NORTHEAST KENTUCKY

CITY           SKY/WX    TMP DP  RH WIND       PRES   REMARKS
LEXINGTON      CLOUDY    39  28  64 W14G24    29.75R WCI  31
COVINGTON      CLOUDY    33  23  66 NW17G28   29.74R WCI  22
FRANKFORT      CLOUDY    39  26  59 W8G23     29.75R WCI  33
$$

KYZ054-064>069-076>088-106>120-140900-
SOUTHEAST KENTUCKY

CITY           SKY/WX    TMP DP  RH WIND       PRES   REMARKS
JACKSON        CLOUDY    43  27  53 W9G25     29.68R
LONDON         CLEAR     42  25  50 W17G25    29.73R
SOMERSET       CLOUDY    39  27  60 W12       29.78R WCI  32
MIDDLESBORO    CLEAR     45  24  44 W3        29.75R
MONTICELLO     SUNNY     42  27  55 W14G25    29.79
$$





USA.gov is the U.S. government's official web portal to all federal, state and local government web resources and services.